Time,TemperatureF,DewpointF,PressureIn,WindDirection,WindDirectionDegrees,WindSpeedMPH,WindSpeedGustMPH,Humidity,HourlyPrecipIn,Conditions,Clouds,dailyrainin,SoftwareType,DateUTC
2013-10-19 00:05:00,38.5,35.3,30.03,NNW,331,0.0,0.0,88,0.00,,,0.00,Wunderground v.1.15,2013-10-19 05:05:00,
2013-10-19 00:15:00,38.3,35.1,30.03,NNW,332,0.0,0.0,88,0.00,,,0.00,Wunderground v.1.15,2013-10-19 05:15:00,
2013-10-19 00:20:00,38.2,35.0,30.03,NNW,331,0.0,0.0,88,0.00,,,0.00,Wunderground v.1.15,2013-10-19 05:20:00,
2013-10-19 00:25:00,38.1,34.9,30.03,NNW,332,0.0,0.0,88,0.00,,,0.00,Wunderground v.1.15,2013-10-19 05:25:00,
2013-10-19 00:30:00,38.0,34.8,30.02,NNW,332,0.0,0.0,88,0.00,,,0.00,Wunderground v.1.15,2013-10-19 05:30:00,
2013-10-19 00:35:00,38.0,34.8,30.02,NNW,332,0.0,0.0,88,0.00,,,0.00,Wunderground v.1.15,2013-10-19 05:35:00,
2013-10-19 00:40:00,37.9,34.7,30.02,NNW,332,0.0,0.0,88,0.00,,,0.00,Wunderground v.1.15,2013-10-19 05:40:00,
2013-10-19 00:45:00,37.8,34.6,30.02,NNW,331,0.0,0.0,88,0.00,,,0.00,Wunderground v.1.15,2013-10-19 05:45:00,
2013-10-19 00:50:00,37.8,34.6,30.02,NNW,331,0.0,0.0,88,0.00,,,0.00,Wunderground v.1.15,2013-10-19 05:50:00,
2013-10-19 00:55:00,37.7,34.8,30.02,NNW,332,0.0,0.0,89,0.00,,,0.00,Wunderground v.1.15,2013-10-19 05:55:00,
2013-10-19 01:05:00,37.6,34.4,30.01,NNW,331,0.0,0.0,88,0.00,,,0.00,Wunderground v.1.15,2013-10-19 06:05:00,
2013-10-19 01:15:00,37.5,34.6,30.01,NNW,331,0.0,0.0,89,0.00,,,0.00,Wunderground v.1.15,2013-10-19 06:15:00,
2013-10-19 01:20:00,37.4,34.5,30.01,NNW,332,0.0,0.0,89,0.00,,,0.00,Wunderground v.1.15,2013-10-19 06:20:00,
2013-10-19 01:25:00,37.4,34.5,30.01,NNW,331,0.0,0.0,89,0.00,,,0.00,Wunderground v.1.15,2013-10-19 06:25:00,
2013-10-19 01:30:00,37.4,34.5,30.01,NNW,331,0.0,0.0,89,0.00,,,0.00,Wunderground v.1.15,2013-10-19 06:30:00,
2013-10-19 01:35:00,37.4,34.5,30.00,NNW,332,0.0,0.0,89,0.00,,,0.00,Wunderground v.1.15,2013-10-19 06:35:00,
2013-10-19 01:45:00,37.4,34.5,30.00,NNW,332,0.0,0.0,89,0.00,,,0.00,Wunderground v.1.15,2013-10-19 06:45:00,
2013-10-19 01:50:00,37.5,34.6,30.00,NNW,332,0.0,0.0,89,0.00,,,0.00,Wunderground v.1.15,2013-10-19 06:50:00,
2013-10-19 01:55:00,37.5,34.6,30.00,NNW,331,0.0,0.0,89,0.00,,,0.00,Wunderground v.1.15,2013-10-19 06:55:00,
2013-10-19 02:00:00,37.5,34.6,30.00,NNW,331,0.0,0.0,89,0.00,,,0.00,Wunderground v.1.15,2013-10-19 07:00:00,
2013-10-19 02:05:00,37.5,34.6,30.00,NNW,331,0.0,0.0,89,0.00,,,0.00,Wunderground v.1.15,2013-10-19 07:05:00,
2013-10-19 02:15:00,37.5,34.6,30.00,NNW,331,0.0,0.0,89,0.00,,,0.00,Wunderground v.1.15,2013-10-19 07:15:00,
2013-10-19 02:20:00,37.5,34.6,29.99,NNW,332,0.0,0.0,89,0.00,,,0.00,Wunderground v.1.15,2013-10-19 07:20:00,
2013-10-19 02:25:00,37.4,34.5,30.00,NNW,332,0.0,0.0,89,0.00,,,0.00,Wunderground v.1.15,2013-10-19 07:25:00,
2013-10-19 02:35:00,37.5,34.6,29.99,NNW,331,0.0,0.0,89,0.00,,,0.00,Wunderground v.1.15,2013-10-19 07:35:00,
2013-10-19 02:40:00,37.5,34.3,29.99,NNW,332,0.0,0.0,88,0.00,,,0.00,Wunderground v.1.15,2013-10-19 07:40:00,
2013-10-19 02:45:00,37.5,34.3,29.99,NNW,332,0.0,0.0,88,0.00,,,0.00,Wunderground v.1.15,2013-10-19 07:45:00,
2013-10-19 02:50:00,37.5,34.3,29.99,NNW,332,0.0,0.0,88,0.00,,,0.00,Wunderground v.1.15,2013-10-19 07:50:00,
2013-10-19 03:00:00,37.4,34.2,29.98,NNW,332,0.0,0.0,88,0.00,,,0.00,Wunderground v.1.15,2013-10-19 08:00:00,
2013-10-19 03:05:00,37.4,34.2,29.98,NNW,332,0.0,0.0,88,0.00,,,0.00,Wunderground v.1.15,2013-10-19 08:05:00,
2013-10-19 03:15:00,37.2,34.0,29.97,NNW,331,0.0,0.0,88,0.00,,,0.00,Wunderground v.1.15,2013-10-19 08:15:00,
2013-10-19 03:25:00,37.0,33.8,29.97,NNW,332,0.0,0.0,88,0.00,,,0.00,Wunderground v.1.15,2013-10-19 08:25:00,
2013-10-19 03:35:00,36.9,33.7,29.97,NNW,331,0.0,0.0,88,0.00,,,0.00,Wunderground v.1.15,2013-10-19 08:35:00,
2013-10-19 03:40:00,36.8,33.6,29.97,NNW,331,0.0,0.0,88,0.00,,,0.00,Wunderground v.1.15,2013-10-19 08:40:00,
2013-10-19 03:45:00,36.8,33.6,29.96,NNW,332,0.0,0.0,88,0.00,,,0.00,Wunderground v.1.15,2013-10-19 08:45:00,
2013-10-19 03:50:00,36.6,33.4,29.96,NNW,332,0.0,0.0,88,0.00,,,0.00,Wunderground v.1.15,2013-10-19 08:50:00,
2013-10-19 03:55:00,36.5,33.3,29.97,NNW,331,0.0,0.0,88,0.00,,,0.00,Wunderground v.1.15,2013-10-19 08:55:00,
2013-10-19 04:05:00,36.2,33.0,29.96,NNW,332,0.0,0.0,88,0.00,,,0.00,Wunderground v.1.15,2013-10-19 09:05:00,
2013-10-19 04:15:00,35.9,32.7,29.96,NNW,331,0.0,0.0,88,0.00,,,0.00,Wunderground v.1.15,2013-10-19 09:15:00,
2013-10-19 04:20:00,35.7,32.5,29.96,NNW,332,0.0,0.0,88,0.00,,,0.00,Wunderground v.1.15,2013-10-19 09:20:00,
2013-10-19 04:25:00,35.5,32.3,29.96,NNW,331,0.0,0.0,88,0.00,,,0.00,Wunderground v.1.15,2013-10-19 09:25:00,
2013-10-19 04:30:00,35.3,32.1,29.96,NNW,332,0.0,0.0,88,0.00,,,0.00,Wunderground v.1.15,2013-10-19 09:30:00,
2013-10-19 04:35:00,35.3,32.1,29.96,NNW,332,0.0,0.0,88,0.00,,,0.00,Wunderground v.1.15,2013-10-19 09:35:00,
2013-10-19 04:40:00,35.2,32.0,29.96,NNW,332,0.0,0.0,88,0.00,,,0.00,Wunderground v.1.15,2013-10-19 09:40:00,
2013-10-19 04:50:00,35.0,31.8,29.96,NNW,332,0.0,0.0,88,0.00,,,0.00,Wunderground v.1.15,2013-10-19 09:50:00,
2013-10-19 04:55:00,34.7,31.5,29.96,NNW,331,0.0,0.0,88,0.00,,,0.00,Wunderground v.1.15,2013-10-19 09:55:00,
2013-10-19 05:00:00,34.4,31.2,29.95,NNW,332,0.0,0.0,88,0.00,,,0.00,Wunderground v.1.15,2013-10-19 10:00:00,
2013-10-19 05:05:00,34.4,31.2,29.95,NNW,332,0.0,0.0,88,0.00,,,0.00,Wunderground v.1.15,2013-10-19 10:05:00,
2013-10-19 05:15:00,33.7,30.5,29.96,NNW,332,0.0,0.0,88,0.00,,,0.00,Wunderground v.1.15,2013-10-19 10:15:00,
2013-10-19 05:20:00,33.4,30.2,29.95,NNW,331,0.0,0.0,88,0.00,,,0.00,Wunderground v.1.15,2013-10-19 10:20:00,
2013-10-19 05:25:00,33.2,30.3,29.96,NNW,332,0.0,0.0,89,0.00,,,0.00,Wunderground v.1.15,2013-10-19 10:25:00,
2013-10-19 05:30:00,33.2,30.0,29.96,NNW,331,0.0,0.0,88,0.00,,,0.00,Wunderground v.1.15,2013-10-19 10:30:00,
2013-10-19 05:35:00,33.1,30.2,29.95,NNW,332,0.0,0.0,89,0.00,,,0.00,Wunderground v.1.15,2013-10-19 10:35:00,
2013-10-19 05:45:00,32.6,29.7,29.95,NNW,332,0.0,0.0,89,0.00,,,0.00,Wunderground v.1.15,2013-10-19 10:45:00,
2013-10-19 05:50:00,32.4,29.5,29.96,NNW,332,0.0,0.0,89,0.00,,,0.00,Wunderground v.1.15,2013-10-19 10:50:00,
2013-10-19 05:55:00,32.2,29.3,29.95,NNW,332,0.0,0.0,89,0.00,,,0.00,Wunderground v.1.15,2013-10-19 10:55:00,
2013-10-19 06:00:00,32.0,29.1,29.95,NNW,331,0.0,0.0,89,0.00,,,0.00,Wunderground v.1.15,2013-10-19 11:00:00,
2013-10-19 06:05:00,31.8,28.9,29.95,NNW,331,0.0,0.0,89,0.00,,,0.00,Wunderground v.1.15,2013-10-19 11:05:00,
2013-10-19 06:15:00,31.5,28.6,29.95,NNW,332,0.0,0.0,89,0.00,,,0.00,Wunderground v.1.15,2013-10-19 11:15:00,
2013-10-19 06:20:00,31.4,28.5,29.95,NNW,331,0.0,0.0,89,0.00,,,0.00,Wunderground v.1.15,2013-10-19 11:20:00,
2013-10-19 06:25:00,31.4,28.5,29.95,NNW,332,0.0,0.0,89,0.00,,,0.00,Wunderground v.1.15,2013-10-19 11:25:00,
2013-10-19 06:30:00,31.4,28.5,29.95,NNW,332,0.0,0.0,89,0.00,,,0.00,Wunderground v.1.15,2013-10-19 11:30:00,
2013-10-19 06:35:00,31.4,28.5,29.95,NNW,331,0.0,0.0,89,0.00,,,0.00,Wunderground v.1.15,2013-10-19 11:35:00,
2013-10-19 06:45:00,31.4,28.5,29.95,NNW,331,0.0,0.0,89,0.00,,,0.00,Wunderground v.1.15,2013-10-19 11:45:00,
2013-10-19 06:50:00,31.3,28.4,29.95,NNW,331,0.0,0.0,89,0.00,,,0.00,Wunderground v.1.15,2013-10-19 11:50:00,
2013-10-19 06:55:00,31.2,28.3,29.95,NNW,332,0.0,0.0,89,0.00,,,0.00,Wunderground v.1.15,2013-10-19 11:55:00,
2013-10-19 07:00:00,31.1,28.2,29.95,NNW,331,0.0,0.0,89,0.00,,,0.00,Wunderground v.1.15,2013-10-19 12:00:00,
2013-10-19 07:05:00,31.1,28.5,29.95,NNW,332,0.0,0.0,90,0.00,,,0.00,Wunderground v.1.15,2013-10-19 12:05:00,
2013-10-19 07:15:00,31.2,28.3,29.95,NNW,332,0.0,0.0,89,0.00,,,0.00,Wunderground v.1.15,2013-10-19 12:15:00,
2013-10-19 07:20:00,31.4,28.8,29.95,NNW,332,0.0,0.0,90,0.00,,,0.00,Wunderground v.1.15,2013-10-19 12:20:00,
2013-10-19 07:30:00,31.5,28.6,29.95,NNW,332,0.0,0.0,89,0.00,,,0.00,Wunderground v.1.15,2013-10-19 12:30:00,
2013-10-19 07:35:00,31.6,28.7,29.95,NNW,332,0.0,0.0,89,0.00,,,0.00,Wunderground v.1.15,2013-10-19 12:35:00,
2013-10-19 07:40:00,31.6,28.7,29.95,NNW,331,0.0,0.0,89,0.00,,,0.00,Wunderground v.1.15,2013-10-19 12:40:00,
2013-10-19 07:45:00,31.6,28.7,29.95,NNW,331,0.0,0.0,89,0.00,,,0.00,Wunderground v.1.15,2013-10-19 12:45:00,
2013-10-19 07:50:00,31.7,28.8,29.95,NNW,331,0.0,0.0,89,0.00,,,0.00,Wunderground v.1.15,2013-10-19 12:50:00,
2013-10-19 08:00:00,32.1,29.5,29.95,NNW,332,0.0,0.0,90,0.00,,,0.00,Wunderground v.1.15,2013-10-19 13:00:00,
2013-10-19 08:05:00,32.4,29.8,29.95,NNW,332,0.0,0.0,90,0.00,,,0.00,Wunderground v.1.15,2013-10-19 13:05:00,
2013-10-19 08:15:00,33.1,30.5,29.95,NNW,332,0.0,0.0,90,0.00,,,0.00,Wunderground v.1.15,2013-10-19 13:15:00,
2013-10-19 08:20:00,33.5,30.9,29.95,NNW,332,0.0,0.0,90,0.00,,,0.00,Wunderground v.1.15,2013-10-19 13:20:00,
2013-10-19 08:25:00,33.8,30.9,29.95,NNW,332,0.0,0.0,89,0.00,,,0.00,Wunderground v.1.15,2013-10-19 13:25:00,
2013-10-19 08:30:00,34.1,31.2,29.95,NNW,332,0.0,0.0,89,0.00,,,0.00,Wunderground v.1.15,2013-10-19 13:30:00,
2013-10-19 08:35:00,34.4,31.5,29.95,NNW,332,0.0,0.0,89,0.00,,,0.00,Wunderground v.1.15,2013-10-19 13:35:00,
2013-10-19 08:45:00,34.6,31.7,29.95,NNW,332,0.0,0.0,89,0.00,,,0.00,Wunderground v.1.15,2013-10-19 13:45:00,
2013-10-19 08:50:00,34.9,32.0,29.95,NNW,331,0.0,0.0,89,0.00,,,0.00,Wunderground v.1.15,2013-10-19 13:50:00,
2013-10-19 08:55:00,35.1,32.2,29.95,NNW,332,0.0,0.0,89,0.00,,,0.00,Wunderground v.1.15,2013-10-19 13:55:00,
2013-10-19 09:00:00,35.4,32.5,29.96,NNW,332,0.0,0.0,89,0.00,,,0.00,Wunderground v.1.15,2013-10-19 14:00:00,
2013-10-19 09:05:00,36.0,33.1,29.95,NNW,330,0.0,0.0,89,0.00,,,0.00,Wunderground v.1.15,2013-10-19 14:05:00,
2013-10-19 09:15:00,37.1,33.9,29.96,WNW,286,0.0,0.0,88,0.00,,,0.00,Wunderground v.1.15,2013-10-19 14:15:00,
2013-10-19 09:20:00,37.7,34.2,29.96,West,272,0.0,5.0,87,0.00,,,0.00,Wunderground v.1.15,2013-10-19 14:20:00,
2013-10-19 09:25:00,38.1,34.6,29.96,WSW,238,1.0,5.0,87,0.00,,,0.00,Wunderground v.1.15,2013-10-19 14:25:00,
2013-10-19 09:35:00,38.9,35.1,29.95,West,275,0.0,1.0,86,0.00,,,0.00,Wunderground v.1.15,2013-10-19 14:35:00,
2013-10-19 09:40:00,39.3,35.5,29.96,WSW,251,0.0,0.0,86,0.00,,,0.00,Wunderground v.1.15,2013-10-19 14:40:00,
2013-10-19 09:45:00,39.5,35.4,29.96,West,269,0.0,0.0,85,0.00,,,0.00,Wunderground v.1.15,2013-10-19 14:45:00,
2013-10-19 09:50:00,39.9,35.8,29.95,WNW,285,0.0,4.0,85,0.00,,,0.00,Wunderground v.1.15,2013-10-19 14:50:00,
2013-10-19 10:00:00,40.7,36.2,29.96,West,281,1.0,1.0,84,0.00,,,0.00,Wunderground v.1.15,2013-10-19 15:00:00,
2013-10-19 10:05:00,41.1,36.3,29.95,WSW,253,0.0,1.0,83,0.00,,,0.00,Wunderground v.1.15,2013-10-19 15:05:00,
2013-10-19 10:15:00,42.0,36.9,29.96,West,269,1.0,3.0,82,0.00,,,0.00,Wunderground v.1.15,2013-10-19 15:15:00,
2013-10-19 10:20:00,42.3,36.9,29.95,WNW,300,1.0,2.0,81,0.00,,,0.00,Wunderground v.1.15,2013-10-19 15:20:00,
2013-10-19 10:25:00,42.5,36.8,29.95,NW,315,1.0,2.0,80,0.00,,,0.00,Wunderground v.1.15,2013-10-19 15:25:00,
2013-10-19 10:30:00,42.9,37.2,29.94,WNW,300,1.0,2.0,80,0.00,,,0.00,Wunderground v.1.15,2013-10-19 15:30:00,
2013-10-19 10:40:00,43.6,37.2,29.94,West,275,1.0,1.0,78,0.00,,,0.00,Wunderground v.1.15,2013-10-19 15:40:00,
2013-10-19 10:45:00,43.7,37.3,29.95,WNW,286,1.0,5.0,78,0.00,,,0.00,Wunderground v.1.15,2013-10-19 15:45:00,
2013-10-19 10:50:00,44.0,37.6,29.94,SW,234,1.0,1.0,78,0.00,,,0.00,Wunderground v.1.15,2013-10-19 15:50:00,
2013-10-19 10:55:00,44.5,37.7,29.94,NW,325,1.0,1.0,77,0.00,,,0.00,Wunderground v.1.15,2013-10-19 15:55:00,
2013-10-19 11:05:00,45.4,38.3,29.93,SW,235,2.0,2.0,76,0.00,,,0.00,Wunderground v.1.15,2013-10-19 16:05:00,
2013-10-19 11:15:00,46.3,38.8,29.93,West,273,1.0,5.0,75,0.00,,,0.00,Wunderground v.1.15,2013-10-19 16:15:00,
2013-10-19 11:20:00,46.6,38.8,29.93,NW,317,1.0,1.0,74,0.00,,,0.00,Wunderground v.1.15,2013-10-19 16:20:00,
2013-10-19 11:25:00,47.3,39.1,29.93,West,261,1.0,2.0,73,0.00,,,0.00,Wunderground v.1.15,2013-10-19 16:25:00,
2013-10-19 11:30:00,48.1,39.1,29.93,NW,323,2.0,2.0,71,0.00,,,0.00,Wunderground v.1.15,2013-10-19 16:30:00,
2013-10-19 11:35:00,48.9,39.5,29.93,NNW,327,1.0,2.0,70,0.00,,,0.00,Wunderground v.1.15,2013-10-19 16:35:00,
2013-10-19 11:45:00,49.6,39.1,29.92,NNW,332,2.0,2.0,67,0.00,,,0.00,Wunderground v.1.15,2013-10-19 16:45:00,
2013-10-19 11:50:00,50.2,38.5,29.92,North,5,2.0,8.0,64,0.00,,,0.00,Wunderground v.1.15,2013-10-19 16:50:00,
2013-10-19 11:55:00,50.0,37.9,29.92,NNW,331,4.0,8.0,63,0.00,,,0.00,Wunderground v.1.15,2013-10-19 16:55:00,
2013-10-19 12:00:00,49.7,37.2,29.92,WSW,237,5.0,5.0,62,0.00,,,0.00,Wunderground v.1.15,2013-10-19 17:00:00,
2013-10-19 12:05:00,50.1,37.6,29.92,SSW,205,3.0,5.0,62,0.00,,,0.00,Wunderground v.1.15,2013-10-19 17:05:00,
2013-10-19 12:15:00,51.3,38.3,29.91,NW,311,2.0,2.0,61,0.00,,,0.00,Wunderground v.1.15,2013-10-19 17:15:00,
2013-10-19 12:20:00,52.2,37.9,29.91,WNW,295,3.0,6.0,58,0.00,,,0.00,Wunderground v.1.15,2013-10-19 17:20:00,
2013-10-19 12:25:00,52.0,36.8,29.91,NW,317,3.0,6.0,56,0.00,,,0.00,Wunderground v.1.15,2013-10-19 17:25:00,
2013-10-19 12:35:00,52.0,36.3,29.91,NW,319,4.0,4.0,55,0.00,,,0.00,Wunderground v.1.15,2013-10-19 17:35:00,
2013-10-19 12:40:00,52.5,36.3,29.90,SW,230,5.0,5.0,54,0.00,,,0.00,Wunderground v.1.15,2013-10-19 17:40:00,
2013-10-19 12:45:00,53.0,36.8,29.90,WNW,300,4.0,5.0,54,0.00,,,0.00,Wunderground v.1.15,2013-10-19 17:45:00,
2013-10-19 12:55:00,52.7,36.0,29.90,NNW,329,3.0,4.0,53,0.00,,,0.00,Wunderground v.1.15,2013-10-19 17:55:00,
2013-10-19 13:00:00,52.2,35.6,29.90,WSW,241,4.0,4.0,53,0.00,,,0.00,Wunderground v.1.15,2013-10-19 18:00:00,
2013-10-19 13:05:00,53.1,35.9,29.89,NNW,346,4.0,4.0,52,0.00,,,0.00,Wunderground v.1.15,2013-10-19 18:05:00,
2013-10-19 13:15:00,53.7,35.0,29.89,SSW,197,2.0,3.0,49,0.00,,,0.00,Wunderground v.1.15,2013-10-19 18:15:00,
2013-10-19 13:20:00,53.2,35.0,29.89,South,191,2.0,2.0,50,0.00,,,0.00,Wunderground v.1.15,2013-10-19 18:20:00,
2013-10-19 13:25:00,53.6,34.9,29.89,West,277,3.0,3.0,49,0.00,,,0.00,Wunderground v.1.15,2013-10-19 18:25:00,
2013-10-19 13:35:00,52.9,34.2,29.88,WNW,289,2.0,4.0,49,0.00,,,0.00,Wunderground v.1.15,2013-10-19 18:35:00,
2013-10-19 13:40:00,52.5,34.9,29.88,NNW,336,2.0,3.0,51,0.00,,,0.00,Wunderground v.1.15,2013-10-19 18:40:00,
2013-10-19 13:45:00,52.1,34.5,29.88,WSW,255,2.0,3.0,51,0.00,,,0.00,Wunderground v.1.15,2013-10-19 18:45:00,
2013-10-19 13:50:00,51.9,34.3,29.88,NW,325,3.0,3.0,51,0.00,,,0.00,Wunderground v.1.15,2013-10-19 18:50:00,
2013-10-19 13:55:00,51.6,34.5,29.87,NW,324,3.0,3.0,52,0.00,,,0.00,Wunderground v.1.15,2013-10-19 18:55:00,
2013-10-19 14:05:00,51.4,35.3,29.87,NW,325,2.0,5.0,54,0.00,,,0.00,Wunderground v.1.15,2013-10-19 19:05:00,
2013-10-19 14:15:00,51.9,34.8,29.87,NNW,329,1.0,3.0,52,0.00,,,0.00,Wunderground v.1.15,2013-10-19 19:15:00,
2013-10-19 14:20:00,51.9,35.3,29.87,NNW,331,1.0,3.0,53,0.00,,,0.00,Wunderground v.1.15,2013-10-19 19:20:00,
2013-10-19 14:25:00,51.4,35.3,29.87,West,273,1.0,15.0,54,0.00,,,0.00,Wunderground v.1.15,2013-10-19 19:25:00,
2013-10-19 14:30:00,50.4,37.9,29.88,NW,318,3.0,3.0,62,0.00,,,0.00,Wunderground v.1.15,2013-10-19 19:30:00,
2013-10-19 14:40:00,48.5,37.7,29.88,West,278,3.0,4.0,66,0.00,,,0.00,Wunderground v.1.15,2013-10-19 19:40:00,
2013-10-19 14:45:00,48.3,37.8,29.88,West,276,3.0,5.0,67,0.00,,,0.00,Wunderground v.1.15,2013-10-19 19:45:00,
2013-10-19 14:50:00,48.1,38.0,29.88,NNW,329,3.0,3.0,68,0.00,,,0.00,Wunderground v.1.15,2013-10-19 19:50:00,
2013-10-19 14:55:00,48.1,38.4,29.88,SW,217,3.0,3.0,69,0.00,,,0.00,Wunderground v.1.15,2013-10-19 19:55:00,
2013-10-19 15:00:00,47.6,38.3,29.88,NW,315,3.0,3.0,70,0.00,,,0.00,Wunderground v.1.15,2013-10-19 20:00:00,
2013-10-19 15:05:00,47.3,38.4,29.88,WNW,284,4.0,4.0,71,0.00,,,0.00,Wunderground v.1.15,2013-10-19 20:05:00,
2013-10-19 15:15:00,47.3,39.1,29.87,NNW,344,1.0,2.0,73,0.00,,,0.00,Wunderground v.1.15,2013-10-19 20:15:00,
2013-10-19 15:25:00,47.2,39.0,29.87,North,350,0.0,0.0,73,0.00,,,0.00,Wunderground v.1.15,2013-10-19 20:25:00,
2013-10-19 15:30:00,47.4,39.2,29.88,North,349,0.0,0.0,73,0.00,,,0.00,Wunderground v.1.15,2013-10-19 20:30:00,
2013-10-19 15:35:00,47.6,39.4,29.88,North,349,0.0,0.0,73,0.00,,,0.00,Wunderground v.1.15,2013-10-19 20:35:00,
2013-10-19 15:45:00,47.8,39.6,29.88,NW,325,0.0,0.0,73,0.00,,,0.00,Wunderground v.1.15,2013-10-19 20:45:00,
2013-10-19 15:50:00,47.8,39.6,29.88,NNW,346,1.0,2.0,73,0.00,,,0.00,Wunderground v.1.15,2013-10-19 20:50:00,
2013-10-19 15:55:00,47.7,39.1,29.89,NNW,340,1.0,2.0,72,0.00,,,0.00,Wunderground v.1.15,2013-10-19 20:55:00,
2013-10-19 16:00:00,47.5,38.6,29.89,WNW,303,1.0,1.0,71,0.00,,,0.00,Wunderground v.1.15,2013-10-19 21:00:00,
2013-10-19 16:05:00,47.2,38.3,29.90,WNW,288,3.0,4.0,71,0.00,,,0.00,Wunderground v.1.15,2013-10-19 21:05:00,
2013-10-19 16:15:00,46.5,39.3,29.90,WNW,303,2.0,4.0,76,0.00,,,0.01,Wunderground v.1.15,2013-10-19 21:15:00,
2013-10-19 16:25:00,45.2,39.4,29.90,NNW,337,1.0,2.0,80,0.00,,,0.01,Wunderground v.1.15,2013-10-19 21:25:00,
2013-10-19 16:30:00,45.0,39.8,29.90,NNW,347,1.0,1.0,82,0.00,,,0.01,Wunderground v.1.15,2013-10-19 21:30:00,
2013-10-19 16:35:00,44.7,39.9,29.90,NNW,344,1.0,1.0,83,0.00,,,0.01,Wunderground v.1.15,2013-10-19 21:35:00,
2013-10-19 16:40:00,44.7,40.2,29.90,NNW,344,1.0,1.0,84,0.00,,,0.01,Wunderground v.1.15,2013-10-19 21:40:00,
2013-10-19 16:45:00,44.6,40.1,29.90,NNW,342,0.0,1.0,84,0.00,,,0.01,Wunderground v.1.15,2013-10-19 21:45:00,
2013-10-19 16:55:00,44.8,40.6,29.90,NNW,342,0.0,0.0,85,0.00,,,0.01,Wunderground v.1.15,2013-10-19 21:55:00,
2013-10-19 17:00:00,44.9,40.7,29.90,NNW,342,0.0,0.0,85,0.00,,,0.01,Wunderground v.1.15,2013-10-19 22:00:00,
2013-10-19 17:05:00,44.9,40.7,29.90,NNW,342,0.0,0.0,85,0.00,,,0.01,Wunderground v.1.15,2013-10-19 22:05:00,
2013-10-19 17:15:00,45.0,40.8,29.90,NNW,342,0.0,0.0,85,0.00,,,0.01,Wunderground v.1.15,2013-10-19 22:15:00,
2013-10-19 17:20:00,45.0,40.8,29.90,NNW,342,0.0,0.0,85,0.00,,,0.01,Wunderground v.1.15,2013-10-19 22:20:00,
2013-10-19 17:25:00,45.0,40.8,29.90,NNW,342,0.0,0.0,85,0.00,,,0.01,Wunderground v.1.15,2013-10-19 22:25:00,
2013-10-19 17:35:00,45.2,40.7,29.89,NNW,342,0.0,0.0,84,0.00,,,0.01,Wunderground v.1.15,2013-10-19 22:35:00,
2013-10-19 17:40:00,45.2,40.7,29.89,NNW,342,0.0,0.0,84,0.00,,,0.01,Wunderground v.1.15,2013-10-19 22:40:00,
2013-10-19 17:45:00,45.2,40.7,29.89,NNW,342,0.0,0.0,84,0.00,,,0.01,Wunderground v.1.15,2013-10-19 22:45:00,
2013-10-19 18:00:00,45.0,40.1,29.89,WNW,287,0.0,0.0,83,0.00,,,0.01,Wunderground v.1.15,2013-10-19 23:00:00,
2013-10-19 18:05:00,44.7,39.9,29.89,West,261,0.0,2.0,83,0.00,,,0.01,Wunderground v.1.15,2013-10-19 23:05:00,
2013-10-19 18:20:00,44.2,39.1,29.89,West,263,0.0,0.0,82,0.00,,,0.01,Wunderground v.1.15,2013-10-19 23:20:00,
2013-10-19 18:25:00,44.1,39.0,29.89,West,263,0.0,0.0,82,0.00,,,0.01,Wunderground v.1.15,2013-10-19 23:25:00,
2013-10-19 18:30:00,44.1,39.0,29.90,West,263,0.0,0.0,82,0.00,,,0.01,Wunderground v.1.15,2013-10-19 23:30:00,
2013-10-19 18:45:00,44.1,39.3,29.89,West,263,0.0,0.0,83,0.00,,,0.01,Wunderground v.1.15,2013-10-19 23:45:00,
2013-10-19 18:50:00,44.0,39.2,29.89,West,263,0.0,0.0,83,0.00,,,0.01,Wunderground v.1.15,2013-10-19 23:50:00,
2013-10-19 18:55:00,44.0,39.2,29.89,West,263,0.0,0.0,83,0.00,,,0.01,Wunderground v.1.15,2013-10-19 23:55:00,
2013-10-19 19:00:00,43.9,39.1,29.89,West,263,0.0,0.0,83,0.00,,,0.01,Wunderground v.1.15,2013-10-20 00:00:00,
2013-10-19 19:10:00,43.8,39.3,29.89,West,263,0.0,0.0,84,0.00,,,0.01,Wunderground v.1.15,2013-10-20 00:10:00,
2013-10-19 19:15:00,43.8,39.3,29.89,West,263,0.0,0.0,84,0.00,,,0.01,Wunderground v.1.15,2013-10-20 00:15:00,
2013-10-19 19:20:00,43.8,39.3,29.89,West,263,0.0,0.0,84,0.00,,,0.01,Wunderground v.1.15,2013-10-20 00:20:00,
2013-10-19 19:25:00,43.9,39.4,29.90,West,263,0.0,0.0,84,0.00,,,0.01,Wunderground v.1.15,2013-10-20 00:25:00,
2013-10-19 19:40:00,44.3,39.8,29.92,NNW,341,3.0,3.0,84,0.00,,,0.01,Wunderground v.1.15,2013-10-20 00:40:00,
2013-10-19 19:55:00,44.7,40.2,29.91,NNW,348,2.0,2.0,84,0.00,,,0.01,Wunderground v.1.15,2013-10-20 00:55:00,
2013-10-19 20:00:00,44.7,40.2,29.91,NNW,346,1.0,1.0,84,0.00,,,0.01,Wunderground v.1.15,2013-10-20 01:00:00,
2013-10-19 20:05:00,44.6,40.1,29.92,NNW,345,1.0,1.0,84,0.00,,,0.01,Wunderground v.1.15,2013-10-20 01:05:00,
2013-10-19 20:15:00,44.4,39.9,29.92,NNW,346,0.0,0.0,84,0.00,,,0.01,Wunderground v.1.15,2013-10-20 01:15:00,
2013-10-19 20:20:00,44.3,40.1,29.92,NNW,345,0.0,0.0,85,0.00,,,0.01,Wunderground v.1.15,2013-10-20 01:20:00,
2013-10-19 20:30:00,44.0,39.8,29.91,NNW,346,0.0,0.0,85,0.00,,,0.02,Wunderground v.1.15,2013-10-20 01:30:00,
2013-10-19 20:35:00,43.8,39.9,29.92,NNW,346,0.0,0.0,86,0.00,,,0.02,Wunderground v.1.15,2013-10-20 01:35:00,
2013-10-19 20:40:00,43.6,39.7,29.91,NNW,345,0.0,0.0,86,0.00,,,0.02,Wunderground v.1.15,2013-10-20 01:40:00,
2013-10-19 20:50:00,43.1,39.2,29.91,NNW,346,0.0,0.0,86,0.00,,,0.02,Wunderground v.1.15,2013-10-20 01:50:00,
2013-10-19 20:55:00,42.8,39.2,29.91,NNW,346,0.0,0.0,87,0.00,,,0.02,Wunderground v.1.15,2013-10-20 01:55:00,
2013-10-19 21:00:00,42.5,38.9,29.91,NNW,346,0.0,0.0,87,0.00,,,0.02,Wunderground v.1.15,2013-10-20 02:00:00,
2013-10-19 21:05:00,42.2,38.6,29.91,NNW,346,0.0,0.0,87,0.00,,,0.02,Wunderground v.1.15,2013-10-20 02:05:00,
2013-10-19 21:15:00,41.4,37.8,29.91,NNW,346,0.0,0.0,87,0.00,,,0.02,Wunderground v.1.15,2013-10-20 02:15:00,
2013-10-19 21:20:00,41.1,37.5,29.91,NNW,346,0.0,0.0,87,0.00,,,0.02,Wunderground v.1.15,2013-10-20 02:20:00,
2013-10-19 21:30:00,40.5,37.2,29.92,NNW,346,0.0,0.0,88,0.00,,,0.02,Wunderground v.1.15,2013-10-20 02:30:00,
2013-10-19 21:35:00,40.1,36.8,29.92,NNW,346,0.0,0.0,88,0.00,,,0.02,Wunderground v.1.15,2013-10-20 02:35:00,
2013-10-19 21:40:00,39.7,36.4,29.92,NNW,345,0.0,0.0,88,0.00,,,0.02,Wunderground v.1.15,2013-10-20 02:40:00,
2013-10-19 21:45:00,39.3,36.0,29.92,NNW,346,0.0,0.0,88,0.00,,,0.02,Wunderground v.1.15,2013-10-20 02:45:00,
2013-10-19 21:55:00,38.5,35.3,29.92,NNW,345,0.0,0.0,88,0.00,,,0.02,Wunderground v.1.15,2013-10-20 02:55:00,
2013-10-19 22:00:00,38.1,34.9,29.91,NNW,346,0.0,0.0,88,0.00,,,0.02,Wunderground v.1.15,2013-10-20 03:00:00,
2013-10-19 22:05:00,37.7,34.5,29.91,NNW,345,0.0,0.0,88,0.00,,,0.02,Wunderground v.1.15,2013-10-20 03:05:00,
2013-10-19 22:15:00,37.2,34.3,29.92,NNW,345,0.0,0.0,89,0.00,,,0.02,Wunderground v.1.15,2013-10-20 03:15:00,
2013-10-19 22:20:00,37.0,34.1,29.92,NNW,346,0.0,0.0,89,0.00,,,0.02,Wunderground v.1.15,2013-10-20 03:20:00,
2013-10-19 22:25:00,36.9,34.0,29.92,NNW,346,0.0,0.0,89,0.00,,,0.02,Wunderground v.1.15,2013-10-20 03:25:00,
2013-10-19 22:30:00,36.7,33.8,29.92,NNW,345,0.0,0.0,89,0.00,,,0.02,Wunderground v.1.15,2013-10-20 03:30:00,
2013-10-19 22:40:00,36.7,33.8,29.91,NNW,346,0.0,0.0,89,0.00,,,0.02,Wunderground v.1.15,2013-10-20 03:40:00,
2013-10-19 22:45:00,36.7,33.8,29.92,NNW,346,0.0,0.0,89,0.00,,,0.02,Wunderground v.1.15,2013-10-20 03:45:00,
2013-10-19 22:50:00,36.7,33.8,29.92,NNW,346,0.0,0.0,89,0.00,,,0.02,Wunderground v.1.15,2013-10-20 03:50:00,
2013-10-19 22:55:00,36.7,33.8,29.92,NNW,346,0.0,0.0,89,0.00,,,0.02,Wunderground v.1.15,2013-10-20 03:55:00,
2013-10-19 23:05:00,36.5,33.8,29.92,NNW,345,0.0,0.0,90,0.00,,,0.02,Wunderground v.1.15,2013-10-20 04:05:00,
2013-10-19 23:15:00,36.1,33.2,29.92,NNW,346,0.0,0.0,89,0.00,,,0.02,Wunderground v.1.15,2013-10-20 04:15:00,
2013-10-19 23:20:00,35.9,33.3,29.92,NNW,346,0.0,0.0,90,0.00,,,0.02,Wunderground v.1.15,2013-10-20 04:20:00,
2013-10-19 23:25:00,35.8,33.2,29.92,NNW,346,0.0,0.0,90,0.00,,,0.02,Wunderground v.1.15,2013-10-20 04:25:00,
2013-10-19 23:30:00,35.6,33.0,29.92,NNW,345,0.0,0.0,90,0.00,,,0.02,Wunderground v.1.15,2013-10-20 04:30:00,
2013-10-19 23:35:00,35.5,32.9,29.92,NNW,345,0.0,0.0,90,0.00,,,0.02,Wunderground v.1.15,2013-10-20 04:35:00,
2013-10-19 23:40:00,35.3,32.7,29.92,NNW,346,0.0,0.0,90,0.00,,,0.02,Wunderground v.1.15,2013-10-20 04:40:00,
2013-10-19 23:45:00,35.1,32.5,29.92,NNW,346,0.0,0.0,90,0.00,,,0.02,Wunderground v.1.15,2013-10-20 04:45:00,
2013-10-19 23:50:00,34.8,32.2,29.92,NNW,346,0.0,0.0,90,0.00,,,0.02,Wunderground v.1.15,2013-10-20 04:50:00,
2013-10-19 23:55:00,34.5,31.9,29.92,NNW,345,0.0,0.0,90,0.00,,,0.02,Wunderground v.1.15,2013-10-20 04:55:00,